Starlink 33799

operational
NORAD ID: 63447 Int'l Des: 2025-069 Owner: SPXS Country: US Constellation: starlink
LEOCIRCULAR

Starlink 33799について

説明を読み込み中...

リアルタイム位置

3D地球を読み込み中...

次回通過

高度履歴

Altitude vs Time

uPlot chart will show altitude changes over time

軌道要素

1 63447U 25069Q 25258.66429046 .00044269 00000-0 14961-2 0 9993
2 63447 53.1616 235.7302 0001934 83.8773 276.2448 15.30237982 26497
Epoch: Sep 15, 2025 • Age: 20 hours

現在のステータス

高度 491.1 km
速度 7.62 km/s
衛星直下点 -44.42°S, 73.89°W
打ち上げ日 Apr 4, 2025
運用期間 0.4 years
タイプ internet

技術仕様

分類 Payload
質量 575.00 kg
乾燥質量 530.00 kg
総質量 575.00 kg
長さ 0.30 m
直径 4.10 m
スパン 29.00 m
形状 Box + pan
製造者 SPXS
バスタイプ Starlink V2MO
フェーズステータス In Orbit
所有者/国 SPXS/US

大規模コンステレーション

Loading constellations...